Terminal Aerodrome Forecast
Issued by NWS Dodge City, KS

Home | Current Version | Previous Version | Text Only | Print | Product List | Glossary On
Versions: 1 2 3 4 5 6 7 8 9 10 11 12 13 14 15 16 17 18 19 20 21 22 23 24 25 26 27 28 29 30 31 32
832
FTUS43 KDDC 191120
TAFDDC
TAF
KDDC 191120Z 1912/2012 19007KT 4SM BR SKC
     FM191300 18008KT 1SM BR BKN020
     FM191600 18011KT 6SM BR BKN070
     FM192100 16016G26KT P6SM BKN200
     FM200600 18012G23KT P6SM BKN060
     FM201000 20013KT P6SM BKN130=

USA.gov is the U.S. government's official web portal to all federal, state and local government web resources and services.